weather.gov     
National Weather Service

Regional Weather Roundup
NWS Homepage
This page is being discontinued on March 12, 2014.
The same data is available at this site. Please update your bookmarks.
Thank you, and we apologize for the inconvenience.
Please send an email to SR-SRH.Webmaster@noaa.gov with any concerns.


Current Version
Previous Version:    01  02  03  04  05  06  07  08  09  10  11  12  13  14  15  16  17  18  19  20  21  22  23  24  25  26  27  28  29  30  
   31  32  33  34  35  36  37  38  39  40  41  42  43  44  45  46  47  48  49  50  51  52  53  54  55  56  57  58  59  60  
[Printable]
912
ASUS46 KLOX 202112
RWRCA

SOUTHERN CALIFORNIA WEATHER ROUNDUP
NATIONAL WEATHER SERVICE OXNARD CALIFORNIA
200 PM PDT MON OCT 20 2014

NOTE: "FAIR" INDICATES FEW OR NO CLOUDS BELOW 12,000 FEET WITH NO
SIGNIFICANT WEATHER AND/OR OBSTRUCTIONS TO VISIBILITY.

  -  STATIONS PRECEEDED BY AN ASTERISK (*) ARE NOT NWS OR FAA
     STATIONS AND ARE NOT SUBJECT TO NWS AND FAA QUALITY CONTROL.

CAZ041-042-087-202200-
LA AND ORANGE COUNTY COASTAL AREAS


CITY           SKY/WX    TMP DP  RH WIND       PRES   REMARKS
L.A. DOWNTOWN  SUNNY     78  60  53 CALM      29.87F
L.A. AIRPORT   MOSUNNY   72  62  71 W12       29.90F
LONG BEACH     MOSUNNY   73  62  68 S7        29.89F

CITY           SKY/WX    TMP DP  RH WIND       PRES   REMARKS
AVALON           N/A     72 N/A N/A MISG        N/A
FULLERTON      SUNNY     78  59  51 SE6       29.88F
*GETTY CENTER    N/A    N/A N/A N/A S8G14       N/A
HAWTHORNE      MOSUNNY   75  62  64 W12       29.89F
*LEO CARRILLO    N/A     72  59  64 SW8         N/A
*LOS ALAMITOS  MOSUNNY   76  62  60 S5        29.89F
*REDONDO BEACH   N/A     70  63  80 W2        29.88F
SANTA ANA      MOSUNNY   76  60  57 CALM      29.89F
STA MONICA APT MOSUNNY   74  60  61 SW9       29.90F
*STA MON PIER    N/A     68  63  84 S10       29.89F
TORRANCE       MOSUNNY   75  63  64 W13       29.90F
*UCLA            N/A     72  59  64 SW6       29.87F

$$

CAZ547-548-048-202200-
LA COUNTY VALLEYS AND INLAND EMPIRE


CITY           SKY/WX    TMP DP  RH WIND       PRES   REMARKS
BURBANK        SUNNY     76  56  49 S7        29.89F
VAN NUYS       MOSUNNY   77  57  50 VRB3      29.89F

CITY           SKY/WX    TMP DP  RH WIND       PRES   REMARKS
CORONA AIRPORT CLEAR     78  59  52 VRB5      29.89F
*CHATSWORTH      N/A     77  60  55 SW1       29.86F
CHINO          MOSUNNY   80  59  48 W7        29.90F
*CLAREMONT       N/A     77  58  51 SW7         N/A
MARCH AFB      SUNNY     76  59  55 NW9       29.92F
*NORTHRIDGE      N/A     77  54  44 E2          N/A
ONTARIO        MOSUNNY   76  58  53 VRB3      29.89F
*PASADENA        N/A     77  63  61 E1          N/A
POMONA         SUNNY     73  59  60 W6        29.93F
RIVERSIDE      SUNNY     78  59  51 VRB5      29.90F
SAN BERNARDINO MOSUNNY   75  55  50 SW3       29.91F HAZE
*SAN GABRIEL     N/A     78  56  45 CALM      29.84F
*SAN RAFAEL HI   N/A     82  67  60 NW6         N/A
*SAUGUS          N/A     79  52  38 S9          N/A
*WHITEMAN AP   SUNNY     75  57  53 SE5       29.93F
*WHITTIER HILL   N/A     79  62  56 W6          N/A
*WOODLAND HILL   N/A     79  57  47 E3          N/A

$$

CAZ054-055-202200-
LA AND SAN BERNARDINO COUNTY MOUNTAINS


CITY           SKY/WX    TMP DP  RH WIND       PRES   REMARKS
*ACTON           N/A     82  43  25 SW10G23     N/A
*BIG BEAR AIRP CLEAR     63  34  34 W10       30.14S
*BIG PINES       N/A     65  34  31 S3          N/A
MT WILSON NWS    N/A     72  45  37 SW8         N/A
SANDBERG       SUNNY     76  43  30 S17G25    30.01F
*WARM SPRINGS    N/A     76  47  35 CALM        N/A

$$

CAZ028-029-059-060-099-202200-
ANTELOPE VALLEY AND SURROUNDING AREAS


CITY           SKY/WX    TMP DP  RH WIND       PRES   REMARKS
LANCASTER      SUNNY     82  38  20 SW13      29.91F
PALMDALE       SUNNY     83  38  20 W24       29.91F
*POPPY PARK      N/A     82  41  23 SW14        N/A

CITY           SKY/WX    TMP DP  RH WIND       PRES   REMARKS
29 PALMS       MOSUNNY   86  42  21 S6        29.93F
BARSTOW/DAGGET SUNNY     88  39  17 NE7       29.86F
BISHOP         SUNNY     82  29  14 S14G23    29.87F
CHINA LAKE     MOSUNNY   87  39  18 S20G29    29.84F
EDWARDS AFB    MOSUNNY   85  38  18 SW13G26   29.87F
MOJAVE         FAIR      82  37  20 S17G23    29.91F
NEEDLES        SUNNY     90  45  21 CALM      29.82F
VICTORVILLE    MOSUNNY   82  34  17 S7        29.92F

$$

CAZ039-040-202200-
VENTURA AND SANTA BARBARA COUNTY COAST


CITY           SKY/WX    TMP DP  RH WIND       PRES   REMARKS
CAMARILLO      SUNNY     73  60  63 W9        29.90F
NWS OXNARD       N/A     73  60  63 SW3       29.90F
OXNARD AIRPORT MOSUNNY   71  60  68 SW8       29.90F
*POINT MUGU    MOSUNNY   77  61  57 W8        29.91F
SBA APT/GOLETA MOSUNNY   73  61  65 SW10      29.89F
*SANTA BARBARA   N/A     77  62  58 W9        29.97F
*VENTURA         N/A     77  62  58 SW6       29.93F

$$

CAZ044-045-202200-
VENTURA COUNTY VALLEYS


CITY           SKY/WX    TMP DP  RH WIND       PRES   REMARKS
*SIMI VALLEY     N/A     77  62  58 SW5       29.85F
*OJAI            N/A     78  62  56 W1        29.83S
*FILLMORE        N/A     80  64  57 SW1       29.78F

$$

CAZ053-202200-
VENTURA COUNTY MOUNTAINS


CITY           SKY/WX    TMP DP  RH WIND       PRES   REMARKS
*LOCKWOOD VLY    N/A     72  30  21 MISG        N/A
*ROSE VALLEY     N/A     79  52  38 MISG        N/A

$$

CAZ034-035-036-202200-
CENTRAL COAST AND SANTA YNEZ VALLEY


CITY           SKY/WX    TMP DP  RH WIND       PRES   REMARKS
SAN LUIS OBISP SUNNY     73  57  57 NW16      29.93F
SANTA MARIA    MOSUNNY   74  57  55 NW18      29.94F

CITY           SKY/WX    TMP DP  RH WIND       PRES   REMARKS
*CAL POLY SLO    N/A     72  61  68 W8          N/A
*LOMPOC        SUNNY     75  55  50 W15G22    29.95S
*PISMO BEACH     N/A     68  62  82 W13       29.94S
*SANTA YNEZ    FAIR      75  52  43 W6        29.92F

$$

CAZ037-038-051-202200-
SAN LUIS OBISPO COUNTY INTERIOR AND CUYAMA VALLEY


CITY           SKY/WX    TMP DP  RH WIND       PRES   REMARKS
*CUYAMA          N/A     76  45  32 NW1       29.86F
PASO ROBLES    SUNNY     71  54  54 CALM      29.94F

$$

CAZ032-033-061-202200-
SOUTHERN DESERTS


CITY           SKY/WX    TMP DP  RH WIND       PRES   REMARKS
BLYTHE         SUNNY     89  51  27 VRB6      29.81F
IMPERIAL       SUNNY     91  55  29 VRB3      29.77F
PALM SPRINGS   SUNNY     88  52  29 VRB3      29.83F
THERMAL        SUNNY     89  56  32 CALM      29.77F

$$

ELSEWHERE ACROSS THE WESTERN UNITED STATES AND MEXICO


CITY           SKY/WX    TMP DP  RH WIND       PRES   REMARKS
DENVER, CO     MOSUNNY   77  33  20 S14G22    30.07F
GRAND CANYON,  PTSUNNY   64  39  39 NE9G18    30.15S
HONOLULU, HI   MOSUNNY   84  70  61 NE13G20   30.01S
KAHULUI, MAUI  MOSUNNY   88  66  48 E7        30.00S HX  90
LAKE TAHOE, CA MOSUNNY   62  31  31 SW10G24   30.00S
LAS VEGAS, NV  MOSUNNY   85  41  21 E7        29.84F
MAMMOTH LAKES, PTSUNNY   68  21  17 SW13G21   30.06S
MEXICO CITY, M CLOUDY    63  55  77 NW6       30.13F
PHOENIX, AZ    MOSUNNY   87  48  25 VRB5      29.84F
PORTLAND, OR   PTSUNNY   62  56  80 SE12      29.80F
RENO, NV       MOSUNNY   74  29  19 S22G32    29.89F
SALT LAKE CITY MOSUNNY   78  34  20 S13       29.95F
SAN DIEGO, CA  PTSUNNY   72  60  66 NW10      29.91F
SAN FRANCISCO, CLOUDY    71  56  58 W10       29.97F
SAN JOSE, CA   LGT RAIN  61  55  81 NW15G22   29.98F
SEATTLE, WA    LGT RAIN  59  54  83 S5        29.77R
TIJUANA, MEX   PTSUNNY   72  59  64 W12       29.92F

$$

STATION/POSITION TIME  TEMP    WIND        PRES    VSBY  WAVE
                       AIR SEA DIR/SP/G                  HT/PER
                 (UTC) (F)     (DEG/KT/KT) (MB)    (MI)  (FT/S)
POINT ARGUELLO B NOT AVBL
WEST SANTA BARBA 2100   65 67  310/ 21/ 23 1012.2F         6/17
POINT CONCEPTION NOT AVBL
EAST SANTA BARBA 2100   67 69  260/  8/ 12 1012.8F
SANTA MONICA BAY 2100   67 71  240/  8/  8 1012.6F         4/10




U.S. Dept. of Commerce
NOAA National Weather Service
1325 East West Highway
Silver Spring, MD 20910
E-mail: w-nws.webmaster@noaa.gov
Page last modified: May 16, 2007
NATIONAL WEATHER SERVICE: for Safety, for Work, for Fun - FOR LIFE